Location: Arpaise
(41.0333°N, 14.7333°E)
Time: 07:32:18
(UTC+00:00)

NOSS 3-3 (C) - Pass Details

Date: 05 July 2020
Orbit: 824 x 1388 km, 63.4° (Epoch: 03 August)

Event Time Altitude Azimuth Distance (km) Brightness Sun altitude
Rises 20:25:01 0° 206° (SSW) 3,370 6.6 -16.2°
Reaches altitude 10° 20:27:22 10° 204° (SSW) 2,470 5.9 -16.4°
Maximum altitude 20:33:01 72° 121° (ESE) 952 3.7 -17.1°
Drops below altitude 10° 20:39:22 10° 38° (NE) 2,765 6.6 -17.8°
Sets 20:42:08 0° 37° (NE) 3,804 7.3 -18.1°
